Location: Newark
(40.4667°N, 5.6000°W)
Time: 13:37:55
(UTC+00:00)

Transit 2A Rocket - Visible Passes

Search period start: 15 November 2019 00:00
Search period end: 25 November 2019 00:00
Orbit: 594 x 909 km, 66.7° (Epoch: 14 November)

Date Brightness Start Highest point End Pass type
(mag) Time Alt. Az. Time Alt. Az. Time Alt. Az.
16 Nov 6.5 06:42:17 10° N 06:45:55 25° NE 06:49:38 10° ESE visible
17 Nov 7.1 06:00:34 10° N 06:03:07 15° NE 06:05:43 10° E visible
19 Nov 6.0 06:16:54 10° NNW 06:20:56 36° NE 06:25:08 10° ESE visible
20 Nov 6.8 05:34:53 10° N 05:38:13 21° NE 05:41:40 10° E visible
21 Nov 7.2 04:53:24 10° NNE 04:55:23 13° NE 04:57:24 10° ENE visible
21 Nov 4.6 06:34:02 10° NNW 06:38:26 82° WSW 06:43:05 10° SSE visible
22 Nov 5.3 05:51:43 11° NNW 05:55:54 53° ENE 06:00:26 10° SE visible
23 Nov 6.3 05:10:46 18° N 05:13:16 30° NE 05:17:17 10° ESE visible
24 Nov 6.9 04:29:53 17° NE 04:30:31 18° NE 04:33:37 10° E visible
24 Nov 4.8 06:09:49 15° NW 06:13:19 53° WSW 06:17:52 10° SSE visible
